Regional Weather Roundup
Issued by NWS Pendleton, OR

Home | Current Version | Previous Version | Text Only | Print | Product List | Glossary On
Versions: 1 2 3 4 5 6 7 8 9 10 11 12 13 14 15 16 17 18 19 20 21 22 23 24 25 26 27 28 29 30 31 32 33 34 35 36 37 38 39 40 41 42 43 44 45 46 47 48 49 50
000
ASUS46 KPDT 220425
RWRPDT
PENDLETON REGIONAL WEATHER ROUNDUP
NATIONAL WEATHER SERVICE PENDLETON OREGON
800 PM PST SAT JAN 21 2017

NOTE: FAIR INDICATES FEW OR NO CLOUDS BELOW 12,000 FEET WITH NO
SIGNIFICANT WEATHER AND/OR OBSTRUCTIONS TO VISIBILITY.

# INDICATES UNOFFICIAL STATION AND DATA

WAZ520-220510-
EAST SLOPES OF WASHINGTON CASCADES

CITY            SKY/WX      TMP DP  RH  WIND    PRES   REMARKS
#CLE ELUM HS    N/A         34  31  89  CALM    29.57R
#CLE ELUM LAKE  N/A         32  31  96  CALM    29.63R
#GLENWOOD       N/A         33  32  96  CALM    29.65R
#NELSON 3SW     N/A         31  30  96  CALM    29.84R
#NILE           N/A         32  31  96  CALM    28.89R
#RONALD 2NW     N/A         31  N/A N/A NE2     29.46R
#TEANAWAY 4NE   N/A         33  33  100 CALM    N/A
#TROUT LAKE 1NE N/A         34  33  96  CALM    29.66R
#TROUT LAKE 1E  N/A         32  31  96  CALM    29.61R
$$

WAZ521-220510-
SIMCOE HIGHLANDS

CITY            SKY/WX      TMP DP  RH  WIND    PRES   REMARKS
#BICKLETON HS   N/A         31  31  100 S5      29.24R
#CENTERVILLE 1SWN/A         34  31  89  CALM    29.62R
#GOLDENDALE 1NE N/A         36  31  82  CALM    N/A
#GOLDENDALE 4W  N/A         35  18  49  NE2     29.66R
#GOODNOE HILLS  N/A         33  29  85  NE2     N/A
#LYLE 6NE       N/A         32  31  96  S1      29.64R
#PITT 4SE       N/A         31  30  96  CALM    29.68R
$$

WAZ026-220510-
KITTITAS VALLEY

CITY            SKY/WX      TMP DP  RH  WIND    PRES   REMARKS
ELLENSBURG AP   LGT RAIN    36  33  89  SE3     29.60R
#ELLENSBURG CWU N/A         34  33  96  CALM    29.60R
#ELLENSBURG 3NE N/A         33  32  96  CALM    27.70R
#ELLENSBURG 1E  N/A         33  N/A N/A CALM    N/A
#KITTITAS 3S    N/A         34  33  96  NE1     29.64R
#THORP 6N       N/A         32  31  96  E7      29.66R
$$

WAZ027-220510-
YAKIMA VALLEY

CITY            SKY/WX      TMP DP  RH  WIND    PRES   REMARKS
SUNNYSIDE AP    PTCLDY      32  31  96  CALM    29.65R FOG
YAKIMA AIRPORT  MOCLDY      36  34  92  CALM    29.63R
YAKIMA-VAGABOND MOCLDY      34  32  92  CALM    29.60R FOG
#DONALD 2NE     N/A         34  28  78  CALM    28.50R
#NACHES 2SW     N/A         34  33  96  CALM    29.59R
#TERRACE HTS    N/A         34  33  96  CALM    29.64R
#TOPPENISH      N/A         33  32  96  CALM    29.59R
#WEST VALLEY    N/A         35  33  92  CALM    29.65R
#W YAKIMA       N/A         35  33  92  CALM    29.66R
#WHITE SWAN 5E  N/A         33  32  96  CALM    29.67R
#WILEY CITY 3W  N/A         33  29  85  CALM    29.57S
$$

WAZ028-220510-
LOWER COLUMBIA BASIN...WASHINGTON

CITY            SKY/WX      TMP DP  RH  WIND    PRES   REMARKS
PASCO           CLOUDY      33  33  100 CALM    29.67R FOG
PROSSER AWOS    N/A         36  36  100 E9      29.68R
RICHLAND AWOS   CLOUDY      34  34  100 CALM    29.67R FOG
#BENTON CITY    N/A         34  33  96  NE2     29.58R
#CONNELL 5N     N/A         35  33  92  NE5     29.68R
#CONNELL 5NW    N/A         35  33  92  E3      29.63R
#ELTOPIA 6NW    N/A         35  33  92  CALM    28.62R
#KAHLOTUS       N/A         36  33  89  S7      29.68R
#KENNEWICK 3S   N/A         34  31  89  CALM    29.67R
#PATERSON       N/A         33  31  92  N2      29.66R
#SAGEMOOR 2W    N/A         34  32  92  CALM    29.52R
#TOUCHET 2S     N/A         33  31  92  CALM    29.65R
#WEST PASCO     N/A         34  31  89  CALM    29.62R
$$

WAZ029-220510-
FOOTHILLS OF THE BLUES...WASHINGTON

CITY            SKY/WX      TMP DP  RH  WIND    PRES   REMARKS
WALLA WALLA AP  CLOUDY      42  33  70  SE8     29.64R
#CLYDE 6NW      N/A         40  35  82  CALM    29.67R
#DAYTON SCHOOL  N/A         38  30  73  CALM    29.69R
#LOWDEN 2SE     N/A         36  34  92  CALM    29.62R
#PLEASANT VIEW 1N/A         39  35  85  SE7     29.72R
#PRESCOTT       N/A         37  35  92  E2      29.67R
#WHITMAN COLLEGEN/A         46  36  68  E5      29.72S
#WAITSBURG 5S   N/A         41  36  82  SE7     29.77R
#WAITSBURG 8N   N/A         38  N/A N/A SE1     29.50R
#WALLA WALLA 5E N/A         46  36  68  SE15    N/A    WCI 40
#WALLA WALLA U  N/A         45  38  76  SE7     29.67S
#WHITMAN MISSIONN/A         42  39  89  CALM    29.68S
$$

WAZ030-220510-
BLUE MOUNTAINS...WASHINGTON

CITY            SKY/WX      TMP DP  RH  WIND    PRES   REMARKS
#DIXIE 5SE      N/A         38  31  76  SE15G26 29.54R WCI 29
#SKI BLUEWOOD   N/A         31  28  88  S2      29.60R
$$

ORZ009-041-WAZ024-220510-
COLUMBIA RIVER GORGE

CITY            SKY/WX      TMP DP  RH  WIND    PRES   REMARKS
HOOD RIVER AP   LGT RAIN    34  32  92  CALM    29.66R
THE DALLES AP   LGT RAIN    35  33  92  CALM    29.66R FOG
#ARLINGTON AIRPON/A         33  32  96  CALM    29.69R
#ARLINGTON HS   N/A         32  29  89  CALM    29.59R
#CELILO DOT     N/A         36  30  79  CALM    N/A
#LYLE           N/A         36  34  92  CALM    29.69R
#MOSIER 1S      N/A         33  30  89  CALM    29.62S
#MURDOCK        N/A         35  33  92  NW3     29.63R
#RUFUS DOT      N/A         35  32  89  S8      N/A
#SMITHVILLE     N/A         36  34  92  N3      29.60R

$$

ORZ510-220510-
NORTH CENTRAL OREGON

CITY            SKY/WX      TMP DP  RH  WIND    PRES   REMARKS
#ANTELOPE       N/A         32  28  85  NE2     29.54R
#CHENOWITH 1W   N/A         33  33  100 E8      N/A
#COW CYN RST AREN/A         37  N/A N/A S6      N/A
#DUFUR 9E       N/A         36  33  89  SW6     29.71R
#GRASS VALLEY 1SN/A         35  34  96  SE1     29.57R
#KENT DOT       N/A         35  28  75  N8      N/A
#MAUPIN SCHOOL  N/A         35  33  92  CALM    29.67R
#SHANIKO 5WSW   N/A         35  24  64  N14     N/A    WCI 26
#SHANIKO 4NW    N/A         34  29  82  S10     29.56R
#TYGH VALLEY 2NEN/A         34  32  92  CALM    29.66R
#WAPANITIA AIRPON/A         33  31  92  W1      29.67R
#WASCO DOT      N/A         33  30  89  CALM    N/A
#WASCO 5NE      N/A         30  28  92  CALM    29.67R
$$

ORZ511-220510-
CENTRAL OREGON

CITY            SKY/WX      TMP DP  RH  WIND    PRES   REMARKS
BEND AIRPORT    MOCLEAR     36  25  64  S7      29.60R
MADRAS AIRPORT  CLEAR       34  28  78  S7      29.62R
PRINEVILLE AP   MOCLDY      36  25  64  S7      29.62R
REDMOND AIRPORT CLEAR       37  23  56  S12     29.61R WCI 29
#ASHWOOD SCHOOL N/A         40  27  59  CALM    29.60R
#BEND 1SW       N/A         33  29  85  SW3     N/A
#BEND-AWBREY    N/A         35  31  85  SW5     29.66R
#BEND-KIM LN    N/A         35  28  75  SE2     29.62R
#CULVER         N/A         38  28  67  SE3     29.59R
#CULVER 8W      N/A         34  27  75  CALM    29.66R
#MADRAS 4S      N/A         36  -3  18  S9      29.70R
#POWELL BUTTE 3EN/A         39  23  52  S6      N/A
#POWELL BUTTE   N/A         38  23  54  S10     29.61R
#PRINEVILLE 3N  N/A         36  28  72  S5      29.68R
#WARM SPRINGS   N/A         38  33  82  CALM    29.58R

$$


ORZ509-220510-
EAST SLOPES OF OREGON CASCADES

CITY            SKY/WX      TMP DP  RH  WIND    PRES   REMARKS
SISTERS AWOS    N/A         32  28  85  CALM    29.59R
#BLUE BOX PASS  N/A         31  N/A N/A S6      N/A
#CAMP SHERMAN   N/A         30  28  92  CALM    29.73R
#LA PINE DOT    N/A         30  24  78  E3      N/A
#LA PINE 4NW    N/A         28  24  85  CALM    29.72R
#LAVA BUTTE DOT N/A         32  23  69  SE3     N/A
#SISTERS ODOT   N/A         31  N/A N/A CALM    N/A
#SISTERS 3N     N/A         27  24  88  CALM    29.64R
#SUNRIVER       N/A         31  28  88  CALM    29.72R
#TUMALO 3W      N/A         37  26  64  SW2     29.54R
#WANOGA BUTTE D N/A         24  24  100 CALM    N/A

$$

ORZ044-220510-
LOWER COLUMBIA BASIN...OREGON

CITY            SKY/WX      TMP DP  RH  WIND    PRES   REMARKS
HERMISTON       MOCLDY      33  33  100 SW6     29.64R FOG
#BOARDMAN SCHOOLN/A         32  30  92  CALM    29.66R
#BOARDMAN 8SW   N/A         30  29  96  CALM    29.67R
#ECHO 8SW       N/A         33  33  100 W3      29.67R
#I-84 EX 198 DOTN/A         43  32  65  N8      N/A
#UMATILLA       N/A         34  30  85  S3      29.60R
$$

ORZ507-220510-
NORTHERN FOOTHILLS OF THE BLUES

CITY            SKY/WX      TMP DP  RH  WIND    PRES   REMARKS
PENDLETON AIRPT CLOUDY      43  33  67  S10     29.63R
#ADAMS 3WNW     N/A         38  34  85  CALM    29.66R
#ATHENA         N/A         41  35  79  CALM    29.68R
#CAYUSE         N/A         46  34  63  CALM    29.65R
#HELIX SCHOOL   N/A         37  34  89  N7      29.66R
#HELIX 3N       N/A         38  34  85  N13     29.61R WCI 30
#HOLDMAN 5SE    N/A         39  35  85  CALM    29.64R
#HOLDMAN 6E     N/A         39  34  82  SE8     29.47R
#M-F GROVE ELEM N/A         43  33  67  CALM    29.62S
#PENDLETON DNTN N/A         39  30  70  CALM    29.62S
#PDT AQUATIC CTRN/A         41  34  76  CALM    29.66R
#PDT SUNRIDGE   N/A         41  34  76  CALM    29.65R
#PENDLETON 7NW  N/A         42  34  73  S3      32.00S
#PILOT ROCK     N/A         40  30  67  W1      29.66R
#TUTUILLA       N/A         42  33  70  CALM    29.66R
#UMAPINE 2E     N/A         43  37  79  SE9     29.60S
#WESTON SCHOOL  N/A         42  31  65  SW7     29.57S

$$

ORZ508-220510-
SOUTHERN FOOTHILLS OF THE BLUES

CITY            SKY/WX      TMP DP  RH  WIND    PRES   REMARKS
#AJAX           N/A         37  28  70  S1      27.39R
#CONDON SCHOOL  N/A         36  32  85  S2      29.59R
#FOSSIL SCHOOL  N/A         39  32  76  E3      29.58R
#HEPPNER EOC    N/A         42  33  70  SE3     29.60R
#HEPPNER 4NE    N/A         40  33  76  CALM    29.66R
#LEXINGTON 2SE  N/A         44  34  68  CALM    29.58R
#MIKKALO        N/A         40  33  76  S8      29.72R
#OLEX 4N        N/A         32  31  96  CALM    29.62R
#RUGGS 5NE      N/A         39  30  70  SE5     29.75S
#RUGGS 2SW      N/A         38  32  79  S2      29.68R

$$

ORZ502-503-220510-
BLUE MOUNTAINS

CITY            SKY/WX      TMP DP  RH  WIND    PRES   REMARKS
MEACHAM         CLOUDY      32  27  82  CALM    29.62R
#BATTLE MTN DOT N/A         30  29  96  S6      N/A
#GREENHORN 9SW  N/A         32  31  96  N1      25.88R
#HEPPNER 15SE   N/A         34  28  78  E2      25.18R
#LADD CYN SMT   N/A         32  29  89  SE16    N/A    WCI 21
#LADD CREEK ODOTN/A         34  29  82  S8      N/A
#LONG CREEK HS  N/A         38  32  79  SW15    N/A    WCI 29
#N POWDER DOT   N/A         N/A N/A N/A SE17    N/A
#PIKES PEAK     N/A         38  29  70  W22G29  27.99S WCI 27
#TOLLGATE       N/A         27  26  96  S1      29.53R
#TROY SCHOOL    N/A         33  31  92  CALM    29.61R
#UKIAH          N/A         32  30  92  CALM    29.65R
#WESTON 4E      N/A         34  31  89  E14     29.65R WCI 25
$$

ORZ505-220510-
JOHN DAY BASIN

CITY            SKY/WX      TMP DP  RH  WIND    PRES   REMARKS
JOHN DAY        CLOUDY      39  29  67  S15     29.68R WCI 31
#ANTELOPE 9ESE  N/A         35  31  85  SW3     N/A
#DAYVILLE SCHOOLN/A         44  27  51  S7      29.64R
#MITCHELL       N/A         39  30  70  SE1     29.82R
#MITCHELL 8NW   N/A         36  26  67  E5      29.50R
#MONUMENT HS    N/A         35  29  78  CALM    29.62R
#MT. VERNON 5SE N/A         33  27  78  CALM    29.61R
#SPRAY SCHOOL   N/A         34  N/A N/A CALM    N/A
$$

ORZ506-220510-
OCHOCO AND JOHN DAY HIGHLANDS

CITY            SKY/WX      TMP DP  RH  WIND    PRES   REMARKS
#HORSE RIDGE DO N/A         33  23  66  SE6     N/A
#KEYES SMT DOT  N/A         34  27  75  S8      N/A
#PAULINA SCHOOL N/A         34  24  66  SW6     N/A
#PINE MTN OBS   N/A         25  24  96  CALM    N/A
#PRAIRIE CITY   N/A         35  24  64  CALM    29.83R
#SENECA         N/A         29  N/A N/A SW5     N/A
#SENECA 9NW     N/A         23  21  92  CALM    29.82R
$$

ORZ049-220510-
GRANDE RONDE VALLEY

CITY            SKY/WX      TMP DP  RH  WIND    PRES   REMARKS
LA GRANDE       CLOUDY      37  28  70  S15     29.68R WCI 28
#COVE           N/A         40  32  73  SE7     29.72R
#COVE 6NW       N/A         36  31  82  SE3     29.75R
#ELGIN 3N       N/A         35  27  72  S3      29.68R
#ELGIN 1E       N/A         36  31  82  S3      N/A
#IMBLER SCHOOL  N/A         34  31  89  S2      29.66R
#ISLAND CITY 4N N/A         44  43  96  S1      29.60R
#LADD CYN DOT   N/A         36  31  82  S25     N/A    WCI 24
#UNION 1S       N/A         37  31  79  S6      29.76R
$$

ORZ050-220510-
WALLOWA COUNTY

CITY            SKY/WX      TMP DP  RH  WIND    PRES   REMARKS
JOSEPH AIRPORT  CLOUDY      27  25  92  CALM    29.66R
#IMNAHA SCHOOL  N/A         43  31  62  NE10    29.71R
#JOSEPH 3N      N/A         21  16  81  CALM    29.72R
#JOSEPH 3W      N/A         27  23  85  CALM    29.53R
#LOSTINE        N/A         24  23  96  CALM    29.61R
#LOSTINE 3SE    N/A         26  25  96  S1      29.71R
#MT HOWARD 8000 N/A         20  17  88  SW14G25 29.52R WCI  7
#PROMISE 1S     N/A         31  30  96  CALM    29.85R
#WALLOWA SCHOOL N/A         26  25  96  CALM    29.69R



$$



USA.gov is the U.S. government's official web portal to all federal, state and local government web resources and services.